[[{"header":{"parameterUnit":"m.s-1","parameterCategory":1,"la1":30.2991,"la2":30.254,"lo1":-89.0895,"lo2":-89.0444,"dy":0.0017,"dx":0.0017,"nx":28,"ny":28,"refTime":"2023-10-27T21:00:00:Z","depth":0,"parameterNumber":2,"parameterNumberName":"U-component_of_WINDS"},"data":[0,0,0,0,0,0,0,0,0,0,0,0,0,0,0,0,0,0,0,0,0,0,0,0,0,0,0,0,0,0,0,0,0,0,0,0,0,0,0,0,0,0,0,0,0,0,0,0,0,0,0,0,0,0,0,0,0,0,-4.0643,-4.0643,0,-4.0597,-4.0597,-4.0596,-4.0484,-4.0481,-4.0479,-4.0476,-4.0432,-4.0433,-4.0434,0,0,0,0,0,0,0,0,0,0,0,0,0,-4.0637,-4.0638,-4.0643,-4.0643,-4.0642,-4.0598,-4.0597,-4.0596,-4.0484,-4.0481,-4.0478,-4.0475,-4.0432,-4.0433,-4.0435,0,0,0,0,0,0,0,0,0,0,0,0,0,-4.062,-4.0638,-4.0643,-4.0581,-4.0574,-4.0598,-4.0597,-4.0596,-4.0485,-4.0481,-4.0477,-4.0474,-4.0432,-4.0433,-4.0435,-4.0516,0,0,-4.0439,-4.044,0,0,0,0,0,0,0,0,-4.0621,-4.0621,-4.059,-4.0585,-4.0578,-4.0542,-4.0578,-4.0569,-4.0485,-4.0519,-4.0476,-4.0472,-4.0472,-4.047,-4.0469,-4.0514,-4.0512,-4.044,-4.0441,-4.0441,-4.0442,0,0,0,0,0,0,0,-4.0623,-4.0622,-4.0625,-4.059,-4.0583,-4.0556,-4.055,-4.0576,-4.0516,-4.0516,-4.0507,-4.0503,-4.0468,-4.0468,-4.0468,-4.0511,-4.044,-4.0441,-4.0442,-4.0443,-4.0621,-4.0625,0,0,0,0,0,0,-4.0632,-4.0624,-4.0627,-4.0624,-4.0591,-4.0559,-4.0552,-4.0558,-4.0515,-4.0506,-4.0506,-4.0498,-4.0467,-4.0466,-4.0466,-4.0558,-4.0441,-4.0443,-4.0444,-4.0617,-4.0622,-4.0626,0,0,0,0,0,0,-4.0633,-4.0634,-4.0628,-4.0621,-4.0619,-4.0563,-4.057,-4.0559,-4.0558,-4.0508,-4.0498,-4.0517,-4.0464,-4.0463,-4.0504,-4.0555,-4.0443,-4.0445,-4.0613,-4.0619,-4.0624,-4.0743,0,0,0,0,0,0,-4.0633,-4.0635,-4.0664,-4.0623,-4.062,-4.0667,-4.0573,-4.056,-4.0561,-4.055,-4.0516,-4.0507,-4.0462,-4.0503,-4.0506,-4.0555,-4.0446,-4.0608,-4.0616,-4.0622,-4.0734,-4.0752,-4.0767,0,0,0,0,0,-4.0633,-4.0699,-4.0666,-4.0667,-4.0655,-4.067,-4.0668,-4.0614,-4.0566,-4.0595,-4.0563,-4.0508,-4.0549,-4.0508,-4.051,-4.0561,-4.0605,-4.0613,-4.0622,-4.0727,-4.0749,-4.0767,0,0,0,0,0,0,-4.0748,-4.0693,-4.0655,-4.071,-4.0695,-4.0651,-4.0686,-4.0639,-4.0638,-4.0628,-4.0562,-4.0555,-4.0605,-4.0587,-4.0542,-4.0638,-4.0568,-4.0578,-4.0647,-4.0667,-4.0683,-4.0686,-4.0447,0,0,0,0,0,-4.0779,-4.0795,-4.0747,-4.08,-4.0795,-4.0743,-4.0747,-4.0707,-4.069,-4.0683,-4.0654,-4.0641,-4.065,-4.0658,-4.0664,-4.0732,-4.0723,-4.0768,-4.0785,-4.0799,-4.0807,-4.0842,-4.0861,-4.0654,-4.0654,-4.0654,0,0,-4.0845,-4.0817,-4.0831,-4.0822,-4.0806,-4.0826,-4.0738,-4.0761,-4.0775,-4.0687,-4.0723,-4.0702,-4.0683,-4.0738,-4.076,-4.0724,-4.0863,-4.081,-4.0821,-4.0822,-4.0853,-4.0873,-4.089,-4.066,-4.0659,-4.0658,0,0,-4.0973,-4.0954,-4.0996,-4.0982,-4.0959,-4.0924,-4.0935,-4.0898,-4.088,-4.0916,-4.085,-4.0867,-4.0885,-4.0874,-4.0871,-4.0999,-4.0947,-4.1003,-4.1088,-4.1123,-4.1139,-4.1153,-4.1198,-4.1215,-4.1012,-4.1012,-4.1012,0,-4.1057,-4.1082,-4.1024,-4.1051,-4.105,-4.0972,-4.1014,-4.1004,-4.0986,-4.0987,-4.0947,-4.0969,-4.095,-4.1002,-4.1033,-4.1033,-4.1044,-4.1005,-4.1142,-4.1155,-4.1168,-4.121,-4.1227,-4.1019,-4.1018,-4.1017,-4.1017,0,-4.1186,-4.1205,-4.1242,-4.1225,-4.1228,-4.1264,-4.1212,-4.1223,-4.1184,-4.1154,-4.1192,-4.1167,-4.1167,-4.1177,-4.1139,-4.1224,-4.1202,-4.1153,-4.1081,-4.1195,-4.1233,-4.1249,-4.1029,-4.1026,-4.1024,-4.1022,0,0,-4.1382,-4.1334,-4.1349,-4.134,-4.1311,-4.1325,-4.1358,-4.1358,-4.1368,-4.136,-4.1386,-4.1404,-4.1359,-4.1356,-4.1316,-4.1347,-4.145,-4.1294,-4.1293,-4.1323,-4.1542,-4.1577,-4.1597,-4.1417,-4.142,-4.1422,-4.1543,0,-4.1501,-4.1553,-4.1503,-4.1566,-4.1583,-4.151,-4.1539,-4.1525,-4.1499,-4.1511,-4.1482,-4.1496,-4.1436,-4.1433,-4.1461,-4.1432,-4.1493,-4.1422,-4.1441,-4.1442,-4.1446,-4.1617,-4.1654,-4.1769,-4.1558,-4.156,-4.1562,0,-4.1647,-4.1644,-4.1708,-4.1676,-4.1681,-4.1708,-4.1705,-4.1717,-4.1701,-4.1679,-4.1677,-4.163,-4.1661,-4.1593,-4.1636,-4.159,-4.1595,-4.1582,-4.1585,-4.1583,-4.1507,-4.1618,-4.1805,-4.1821,-4.1585,-4.1584,-4.1582,0,-4.1782,-4.1795,-4.1834,-4.183,-4.1794,-4.1815,-4.1801,-4.1781,-4.1785,-4.1783,-4.1784,-4.1787,-4.1788,-4.1791,-4.1746,-4.1701,-4.1795,-4.1723,-4.1778,-4.178,-4.1799,-4.1798,-4.1988,-4.1806,-4.1806,-4.1806,-4.1805,0,-4.1919,-4.1961,-4.1895,-4.1919,-4.1965,-4.1908,-4.1955,-4.1934,-4.1918,-4.1938,-4.1876,-4.1897,-4.1837,-4.1851,-4.1817,-4.1858,-4.1859,-4.1843,-4.1833,-4.1847,-4.1849,-4.1848,-4.1838,-4.181,-4.1809,-4.1808,-4.1808,0,-4.2076,-4.2033,-4.2072,-4.2035,-4.2027,-4.2062,-4.2031,-4.2053,-4.2025,-4.2051,-4.2054,-4.2009,-4.2023,-4.1979,-4.1986,-4.1963,-4.2022,-4.2,-4.2028,-4.202,-4.2077,-4.2072,-4.2271,-4.2294,-4.21,-4.2102,-4.2104,0,-4.2164,-4.2195,-4.2162,-4.2171,-4.2161,-4.2176,-4.2179,-4.2127,-4.2133,-4.2119,-4.2143,-4.2152,-4.2156,-4.2183,-4.2151,-4.2157,-4.2133,-4.2203,-4.2133,-4.2147,-4.2132,-4.213,-4.2133,-4.2216,-4.2218,-4.222,-4.2222,0,-4.2327,-4.2305,-4.2312,-4.2313,-4.2319,-4.2318,-4.2311,-4.2323,-4.2266,-4.2277,-4.2291,-4.2295,-4.2303,-4.2313,-4.2312,-4.2299,-4.2252,-4.2245,-4.2257,-4.2271,-4.2285,-4.2277,-4.2065,-4.2239,-4.2238,-4.2236,-4.2236,-4.2235,-4.2451,-4.2475,-4.2456,-4.2467,-4.2457,-4.2454,-4.2472,-4.2447,-4.2457,-4.2459,-4.2428,-4.2449,-4.2434,-4.2428,-4.242,-4.2436,-4.2404,-4.2423,-4.2427,-4.2432,-4.2441,-4.2285,-4.2436,-4.2435,-4.2435,-4.2434,-4.2434,0,-4.2608,-4.2593,-4.2604,-4.2598,-4.2607,-4.2563,-4.2555,-4.2565,-4.2584,-4.2574,-4.258,-4.2597,-4.2607,-4.2578,-4.2584,-4.2602,-4.2581,-4.2605,-4.2602,-4.26,-4.247,-4.2457,-4.2623,-4.2623,-4.2623,-4.2623,-4.2623,-4.2623,-4.2691,-4.2729,-4.2706,-4.274,-4.2725,-4.2744,-4.2743,-4.274,-4.2732,-4.2753,-4.2761,-4.2742,-4.2725,-4.273,-4.2738,-4.2729,-4.2733,-4.2765,-4.2749,-4.2628,-4.2609,-4.2591,-4.2579,-4.2767,-4.2768,-4.2877,-4.2878,-4.2879]},{"header":{"parameterUnit":"m.s-1","parameterCategory":1,"la1":30.2991,"la2":30.254,"lo1":-89.0895,"lo2":-89.0444,"dy":0.0017,"dx":0.0017,"nx":28,"ny":28,"refTime":"2023-10-27T21:00:00:Z","depth":0,"parameterNumber":3,"parameterNumberName":"V-component_of_WINDS"},"data":[0,0,0,0,0,0,0,0,0,0,0,0,0,0,0,0,0,0,0,0,0,0,0,0,0,0,0,0,0,0,0,0,0,0,0,0,0,0,0,0,0,0,0,0,0,0,0,0,0,0,0,0,0,0,0,0,0,0,-0.981,-0.9811,0,-0.9936,-0.9937,-0.9938,-0.9978,-0.9977,-0.9977,-0.9976,-1.0106,-1.011,-1.0114,0,0,0,0,0,0,0,0,0,0,0,0,0,-0.9602,-0.9605,-0.9809,-0.9811,-0.9813,-0.9935,-0.9937,-0.9939,-0.9978,-0.9977,-0.9977,-0.9976,-1.0105,-1.011,-1.0114,0,0,0,0,0,0,0,0,0,0,0,0,0,-0.9706,-0.9607,-0.9809,-0.9847,-0.9852,-0.9935,-0.9937,-0.9939,-0.9978,-0.9977,-0.9977,-0.9976,-1.0103,-1.0109,-1.0115,-1.017,0,0,-1.0133,-1.0136,0,0,0,0,0,0,0,0,-0.97,-0.9714,-0.984,-0.9845,-0.985,-0.994,-0.9912,-1.0017,-0.9979,-0.993,-0.9976,-0.9975,-1.0052,-1.0062,-1.0088,-1.0176,-1.0182,-1.0134,-1.0138,-1.014,-1.0142,0,0,0,0,0,0,0,-0.9693,-0.9709,-0.9859,-0.9842,-0.9848,-0.9857,-0.9871,-0.9932,-0.9994,-0.9934,-0.9938,-0.9952,-1.0054,-1.0082,-1.0091,-1.0184,-1.0134,-1.0139,-1.0143,-1.0145,-1.0321,-1.0322,0,0,0,0,0,0,-0.9679,-0.9702,-0.9855,-0.9863,-0.9771,-0.9862,-0.9877,-0.9912,-0.9994,-1.0006,-0.9953,-0.9953,-1.0072,-1.0084,-1.0096,-1.0164,-1.014,-1.0146,-1.0149,-1.032,-1.0322,-1.0323,0,0,0,0,0,0,-0.9675,-0.9693,-0.985,-0.9784,-0.9804,-0.9866,-0.9905,-0.9915,-0.9942,-1.0008,-1.0019,-0.9969,-1.0072,-1.0087,-1.0151,-1.0169,-1.0149,-1.0154,-1.0319,-1.0321,-1.0322,-1.0302,0,0,0,0,0,0,-0.9669,-0.9691,-0.9713,-0.9784,-0.9808,-0.9904,-0.9906,-0.9918,-0.9953,-0.9955,-1.0026,-1.0037,-1.0072,-1.0141,-1.0157,-1.0177,-1.0159,-1.0318,-1.032,-1.0322,-1.0301,-1.0303,-1.0304,0,0,0,0,0,-0.9661,-0.9703,-0.9714,-0.9732,-0.9837,-0.9905,-0.9918,-0.9958,-0.9954,-0.9976,-1.0018,-1.0035,-1.0165,-1.0148,-1.0165,-1.0188,-1.0317,-1.0319,-1.0322,-1.0301,-1.0302,-1.0304,0,0,0,0,0,0,-0.9633,-0.9713,-0.9726,-0.9792,-0.9841,-0.9911,-0.9941,-0.9958,-1.001,-1.001,-1.0056,-1.0072,-1.0132,-1.0166,-1.0146,-1.0244,-1.0241,-1.0247,-1.0219,-1.0222,-1.0223,-1.0213,-1.0164,0,0,0,0,0,-0.9634,-0.9683,-0.975,-0.9802,-0.9825,-0.9878,-0.991,-0.9935,-0.9988,-1.0009,-1.0056,-1.0107,-1.0159,-1.0192,-1.0244,-1.0306,-1.0322,-1.033,-1.0331,-1.0332,-1.0337,-1.0371,-1.0375,-1.0331,-1.0331,-1.0331,0,0,-0.9638,-0.9687,-0.9715,-0.9797,-0.9838,-0.9887,-0.9896,-0.9948,-0.9984,-1.0018,-1.008,-1.0115,-1.0175,-1.0238,-1.0268,-1.0268,-1.0352,-1.0335,-1.0335,-1.034,-1.0374,-1.0378,-1.0381,-1.0332,-1.0332,-1.0332,0,0,-0.9669,-0.9712,-0.9759,-0.9799,-0.9861,-0.9896,-0.9906,-0.9974,-0.9998,-1.0061,-1.0087,-1.0131,-1.022,-1.0261,-1.0293,-1.0337,-1.0354,-1.0353,-1.036,-1.0392,-1.0395,-1.0399,-1.0413,-1.0418,-1.0357,-1.0357,-1.0357,0,-0.9666,-0.974,-0.978,-0.983,-0.9865,-0.9896,-0.9943,-0.9981,-1.0056,-1.0079,-1.0078,-1.0189,-1.0232,-1.0304,-1.0314,-1.034,-1.0353,-1.0345,-1.0392,-1.0395,-1.0399,-1.0413,-1.0419,-1.0356,-1.0356,-1.0356,-1.0356,0,-0.9732,-0.9783,-0.9814,-0.9885,-0.9923,-0.9971,-1.0018,-1.0051,-1.0073,-1.0107,-1.017,-1.0222,-1.0284,-1.0303,-1.0325,-1.0377,-1.0375,-1.0382,-1.0381,-1.0402,-1.0416,-1.0422,-1.0355,-1.0356,-1.0356,-1.0356,0,0,-0.9751,-0.9842,-0.9852,-0.9884,-0.9953,-0.9993,-1.0042,-1.0102,-1.0129,-1.018,-1.0221,-1.0295,-1.0301,-1.0338,-1.0365,-1.0393,-1.0423,-1.0397,-1.0399,-1.0399,-1.0482,-1.0476,-1.0481,-1.0434,-1.0436,-1.0437,-1.0476,0,-0.979,-0.9879,-0.9915,-0.9987,-1.0033,-1.0063,-1.0105,-1.0152,-1.0185,-1.0229,-1.0265,-1.0316,-1.0321,-1.0343,-1.0373,-1.0413,-1.044,-1.0411,-1.0473,-1.0475,-1.0457,-1.0489,-1.0483,-1.0519,-1.0482,-1.0483,-1.0484,0,-0.9849,-0.9898,-0.9974,-1.0035,-1.0056,-1.0094,-1.015,-1.0193,-1.0245,-1.0267,-1.0307,-1.0332,-1.0383,-1.0378,-1.0449,-1.0428,-1.0455,-1.0478,-1.0481,-1.0488,-1.0481,-1.0496,-1.0531,-1.0536,-1.0494,-1.0493,-1.0492,0,-0.9853,-0.9939,-0.9995,-1.0021,-1.0095,-1.012,-1.0152,-1.0204,-1.0237,-1.0286,-1.0307,-1.0362,-1.0392,-1.0434,-1.0473,-1.0465,-1.0539,-1.0537,-1.0558,-1.0557,-1.0573,-1.0571,-1.0612,-1.0591,-1.0591,-1.0591,-1.0591,0,-0.9893,-0.9938,-0.9997,-1.0032,-1.0082,-1.0123,-1.0172,-1.0206,-1.0251,-1.0292,-1.0321,-1.0359,-1.0408,-1.0452,-1.0482,-1.0535,-1.0549,-1.0568,-1.0575,-1.0565,-1.0562,-1.0584,-1.0582,-1.0592,-1.0592,-1.0592,-1.0592,0,-0.9907,-0.9948,-1.0011,-1.0075,-1.0092,-1.0126,-1.0181,-1.0215,-1.0248,-1.0299,-1.0314,-1.0366,-1.0419,-1.0461,-1.0531,-1.0551,-1.0607,-1.0616,-1.0589,-1.0593,-1.0611,-1.0608,-1.0666,-1.0675,-1.0649,-1.0649,-1.0649,0,-0.9929,-0.9964,-1.0031,-1.006,-1.0092,-1.0138,-1.0172,-1.0213,-1.0246,-1.0307,-1.0334,-1.0388,-1.0434,-1.0517,-1.0561,-1.0614,-1.0624,-1.064,-1.0632,-1.062,-1.0623,-1.062,-1.0623,-1.0641,-1.0641,-1.0641,-1.0641,0,-0.9965,-0.9983,-1.003,-1.0083,-1.0121,-1.0165,-1.021,-1.0232,-1.0281,-1.0317,-1.0371,-1.0406,-1.0476,-1.0529,-1.0586,-1.0619,-1.0638,-1.0643,-1.0651,-1.0641,-1.0623,-1.0632,-1.059,-1.0642,-1.0642,-1.0642,-1.0642,-1.0642,-0.9984,-1.0015,-1.0066,-1.0117,-1.0154,-1.0195,-1.0229,-1.0266,-1.0312,-1.0371,-1.0393,-1.0447,-1.0498,-1.0576,-1.0608,-1.0652,-1.0654,-1.0665,-1.0667,-1.0669,-1.0667,-1.0616,-1.0662,-1.0662,-1.0662,-1.0662,-1.0663,0,-1.0019,-1.0053,-1.0099,-1.016,-1.0199,-1.0213,-1.0262,-1.0294,-1.0342,-1.0387,-1.0431,-1.0492,-1.0543,-1.0591,-1.0644,-1.0669,-1.0679,-1.0682,-1.0681,-1.0687,-1.0663,-1.0651,-1.0673,-1.0673,-1.0673,-1.0673,-1.0673,-1.0673,-1.0043,-1.0097,-1.012,-1.0193,-1.0226,-1.028,-1.0307,-1.0344,-1.038,-1.0446,-1.0489,-1.0519,-1.0565,-1.0621,-1.0669,-1.0681,-1.0699,-1.07,-1.0714,-1.0691,-1.0689,-1.0688,-1.0677,-1.0703,-1.0703,-1.0735,-1.0735,-1.0735]}]]